Location: Bovenkerk
(52.2915°N, 4.8336°E)
Time: 17:27:35
(UTC+00:00)

Cosmos 1346 Rocket - Pass Details

Date: 09 April 2020
Orbit: 529 x 550 km, 81.2° (Epoch: 25 May)

Event Time Altitude Azimuth Distance (km) Brightness Sun altitude
Rises 22:38:03 0° 348° (NNW) 2,727 7.6 -28.2°
Reaches altitude 10° 22:40:13 10° 350° (N) 1,831 6.4 -28.3°
Enters shadow 22:42:43 36° 357° (N) 878 4.3 -28.4°
